Chillicothe, MO

2:12 AM CDT on April 25, 2017 (GMT -0500)
Chillicothe

Weather History for KCDJ - August, 2013

Change the Weather History Date:

Saturday, August 10, 2013

  Actual Average (KIRK) Record (KIRK)
Temperature  
Mean Temperature 74 °F -  
Max Temperature 86 °F 84 °F 108 °F (1934)
Min Temperature 62 °F 63 °F 52 °F (1966)
Cooling Degree Days 9    
Growing Degree Days 24 (Base 50)    
Moisture  
Dew Point 60 °F    
Average Humidity 64    
Maximum Humidity 90    
Minimum Humidity 36    
Precipitation  
Precipitation 0.00 in - - ()
Sea Level Pressure  
Sea Level Pressure 30.14 in    
Wind  
Wind Speed 2 mph (ENE)    
Max Wind Speed 7 mph    
Max Gust Speed -    
Averages and records for this station are not official NWS values.
T = Trace of Precipitation, MM = Missing Value Source: NWS Daily Summary

Daily Weather History Graph

Daily Weather History Graph

Search for Another Location

Airport or City:

Trip Planner

Search our weather history database for the weather conditions in past years. The results will help you decide how hot, cold, wet, or windy it might be!

Date:

Astronomy

Aug. 10, 2013 Rise Set
Actual Time 6:21 AM CDT 8:16 PM CDT
Civil Twilight 5:52 AM CDT 8:46 PM CDT
Nautical Twilight 5:16 AM CDT 9:21 PM CDT
Astronomical Twilight 4:38 AM CDT 9:59 PM CDT
Moon 10:08 AM CDT (8/10) 9:59 PM CDT (8/10)
Length of Visible Light 14h 53m
Length of Day
13h 55m
Waxing Crescent, 14% of the Moon is Illuminated
Aug 10
Waxing Crescent
Aug 14
First Quarter
Aug 20
Full
Aug 28
Last Quarter
Sep 5
New

Hourly Weather History & Observations

Time (CDT) Temp. Heat Index Dew Point Humidity Pressure Visibility Wind Dir Wind Speed Gust Speed Precip Events Conditions
12:52 AM 68.0 °F - 64.9 °F 90% 30.12 in - Calm Calm - N/A   Unknown
1:52 AM 68.0 °F - 64.0 °F 87% 30.12 in - Calm Calm - N/A   Unknown
2:52 AM 66.9 °F - 63.0 °F 87% 30.13 in - North 3.5 mph - N/A   Unknown
3:52 AM 66.0 °F - 62.1 °F 87% 30.13 in - Calm Calm - N/A   Unknown
4:52 AM 64.0 °F - 61.0 °F 90% 30.14 in - North 3.5 mph - N/A   Unknown
5:52 AM 62.1 °F - 59.0 °F 90% 30.14 in - Calm Calm - N/A   Unknown
6:52 AM 62.1 °F - 59.0 °F 90% 30.16 in - North 3.5 mph - N/A   Unknown
7:52 AM 66.9 °F - 59.0 °F 76% 30.17 in - Variable 4.6 mph - N/A   Unknown
8:52 AM 71.1 °F - 59.0 °F 66% 30.19 in - ENE 4.6 mph - N/A   Unknown
9:52 AM 73.9 °F - 59.0 °F 59% 30.19 in - East 5.8 mph - N/A   Unknown
10:52 AM 77.0 °F - 57.9 °F 52% 30.19 in - East 4.6 mph - N/A   Unknown
11:52 AM 80.1 °F 80.7 °F 59.0 °F 48% 30.19 in - East 4.6 mph - N/A   Unknown
12:52 PM 82.0 °F 82.0 °F 57.9 °F 44% 30.17 in - East 4.6 mph - N/A   Unknown
1:52 PM 82.9 °F 82.4 °F 57.0 °F 41% 30.16 in - Variable 4.6 mph - N/A   Unknown
2:52 PM 84.0 °F 83.3 °F 57.0 °F 40% 30.13 in - Variable 5.8 mph - N/A   Unknown
3:52 PM 86.0 °F 84.7 °F 55.9 °F 36% 30.12 in - Variable 3.5 mph - N/A   Unknown
4:52 PM 82.9 °F 83.2 °F 60.1 °F 46% 30.11 in - SSW 6.9 mph - N/A   Unknown
5:52 PM 84.0 °F 83.5 °F 57.9 °F 41% 30.10 in - Variable 3.5 mph - N/A   Unknown
6:52 PM 82.9 °F 83.2 °F 60.1 °F 46% 30.09 in - Calm Calm - N/A   Unknown
7:52 PM 77.0 °F - 63.0 °F 62% 30.09 in - Calm Calm - N/A   Unknown
8:52 PM 71.1 °F - 64.0 °F 78% 30.10 in - Calm Calm - N/A   Unknown
9:52 PM 73.9 °F - 60.1 °F 62% 30.13 in - East 3.5 mph - N/A   Unknown
10:52 PM 73.0 °F - 59.0 °F 61% 30.12 in - ESE 4.6 mph - N/A   Unknown
11:52 PM 70.0 °F - 59.0 °F 68% 30.13 in - Calm Calm - N/A   Unknown